Torna al catalogo

ARIANE 5 R/B

AttivoGTO
NORAD 41749·ROCKET BODY·🇫🇷 France

Lanciato Aug 24, 2016 da Guiana Space Centre

Loading…

TLE

ObsoletoSource: Space-Track

Epoca: Sep 13, 2026, 12:47 UTC

1 41749U 16053C   26256.53323997  .00000594  00000-0  36457-3 0  9998
2 41749   6.5653 350.4249 7122888  65.4993 350.4075  2.46802983 86584

Traccia ARIANE 5 R/B in tempo reale con AllMySat

Download on the App Store